Zurück zum Katalog

STARLINK-31199

AktivKommunikationVLEO
NORAD 58861·PAYLOAD·🇺🇸 United States

Gestartet Jan 29, 2024 von Cape Canaveral Space Force Station

Loading…

Nächste Überflüge (nächste 24 Stunden)

TLE

AktuellSource: CelesTrak SupGP

Epoche: Sep 15, 2026, 03:14 UTC

1 58861C 24019J   26258.13520833 -.00021334  00000+0 -77330-3 0  2587
2 58861  43.0011 258.9355 0001256 250.6560 222.7517 15.27564876    12

Verfolge STARLINK-31199 in Echtzeit mit AllMySat

Download on the App Store